Year,Month,Day,Hour,Minute,Value (Times are PST for temperature in C)
2006,09,23,00,00,7.90
2006,09,23,00,01,7.90
2006,09,23,00,02,7.90
2006,09,23,00,03,7.90
2006,09,23,00,04,7.90
2006,09,23,00,05,7.90
2006,09,23,00,06,7.90
2006,09,23,00,07,7.90
2006,09,23,00,08,7.90
2006,09,23,00,09,7.90
2006,09,23,00,10,7.90
2006,09,23,00,11,7.80
2006,09,23,00,12,7.80
2006,09,23,00,13,7.80
2006,09,23,00,14,7.80
2006,09,23,00,15,7.80
2006,09,23,00,16,7.80
2006,09,23,00,17,7.80
2006,09,23,00,18,7.80
2006,09,23,00,19,7.80
2006,09,23,00,20,7.80
2006,09,23,00,21,7.80
2006,09,23,00,22,7.70
2006,09,23,00,23,7.70
2006,09,23,00,24,7.70
2006,09,23,00,25,7.70
2006,09,23,00,26,7.70
2006,09,23,00,27,7.70
2006,09,23,00,28,7.60
2006,09,23,00,29,7.60
2006,09,23,00,30,7.60
2006,09,23,00,31,7.60
2006,09,23,00,32,7.60
2006,09,23,00,33,7.60
2006,09,23,00,34,7.60
2006,09,23,00,35,7.60
2006,09,23,00,36,7.60
2006,09,23,00,37,7.60
2006,09,23,00,38,7.60
2006,09,23,00,39,7.60
2006,09,23,00,40,7.60
2006,09,23,00,41,7.60
2006,09,23,00,42,7.60
2006,09,23,00,43,7.60
2006,09,23,00,44,7.60
2006,09,23,00,45,7.60
2006,09,23,00,46,7.60
2006,09,23,00,47,7.60
2006,09,23,00,48,7.60
2006,09,23,00,49,7.60
2006,09,23,00,50,7.50
2006,09,23,00,51,7.50
2006,09,23,00,52,7.50
2006,09,23,00,53,7.50
2006,09,23,00,54,7.50
2006,09,23,00,55,7.50
2006,09,23,00,56,7.50
2006,09,23,00,57,7.40
2006,09,23,00,58,7.40
2006,09,23,00,59,7.40
2006,09,23,01,00,7.40
2006,09,23,01,01,7.40
2006,09,23,01,02,7.40
2006,09,23,01,03,7.40
2006,09,23,01,04,7.40
2006,09,23,01,05,7.40
2006,09,23,01,06,7.40
2006,09,23,01,07,7.40
2006,09,23,01,08,7.40
2006,09,23,01,09,7.40
2006,09,23,01,10,7.40
2006,09,23,01,11,7.40
2006,09,23,01,12,7.40
2006,09,23,01,13,7.40
2006,09,23,01,14,7.40
2006,09,23,01,15,7.40
2006,09,23,01,16,7.40
2006,09,23,01,17,7.40
2006,09,23,01,18,7.40
2006,09,23,01,19,7.40
2006,09,23,01,20,7.40
2006,09,23,01,21,7.30
2006,09,23,01,22,7.30
2006,09,23,01,23,7.30
2006,09,23,01,24,7.30
2006,09,23,01,25,7.30
2006,09,23,01,26,7.30
2006,09,23,01,27,7.30
2006,09,23,01,28,7.30
2006,09,23,01,29,7.30
2006,09,23,01,30,7.30
2006,09,23,01,31,7.30
2006,09,23,01,32,7.30
2006,09,23,01,33,7.30
2006,09,23,01,34,7.30
2006,09,23,01,35,7.30
2006,09,23,01,36,7.30
2006,09,23,01,37,7.30
2006,09,23,01,38,7.30
2006,09,23,01,39,7.30
2006,09,23,01,40,7.30
2006,09,23,01,41,7.30
2006,09,23,01,42,7.30
2006,09,23,01,43,7.30
2006,09,23,01,44,7.30
2006,09,23,01,45,7.30
2006,09,23,01,46,7.30
2006,09,23,01,47,7.30
2006,09,23,01,48,7.30
2006,09,23,01,49,7.30
2006,09,23,01,50,7.30
2006,09,23,01,51,7.30
2006,09,23,01,52,7.30
2006,09,23,01,53,7.30
2006,09,23,01,54,7.30
2006,09,23,01,55,7.20
2006,09,23,01,56,7.20
2006,09,23,01,57,7.20
2006,09,23,01,58,7.10
2006,09,23,01,59,7.10
2006,09,23,02,00,7.10
2006,09,23,02,01,7.10
2006,09,23,02,02,7.10
2006,09,23,02,03,7.10
2006,09,23,02,04,7.10
2006,09,23,02,05,7.10
2006,09,23,02,06,7.10
2006,09,23,02,07,7.10
2006,09,23,02,08,7.10
2006,09,23,02,09,7.10
2006,09,23,02,10,7.10
2006,09,23,02,11,7.10
2006,09,23,02,12,7.10
2006,09,23,02,13,7.10
2006,09,23,02,14,7.10
2006,09,23,02,15,7.10
2006,09,23,02,16,7.10
2006,09,23,02,17,7.10
2006,09,23,02,18,7.10
2006,09,23,02,19,7.00
2006,09,23,02,20,7.00
2006,09,23,02,21,7.00
2006,09,23,02,22,7.00
2006,09,23,02,23,7.00
2006,09,23,02,24,7.00
2006,09,23,02,25,6.90
2006,09,23,02,26,6.90
2006,09,23,02,27,6.90
2006,09,23,02,28,6.90
2006,09,23,02,29,6.90
2006,09,23,02,30,6.90
2006,09,23,02,31,6.90
2006,09,23,02,32,6.90
2006,09,23,02,33,6.90
2006,09,23,02,34,6.90
2006,09,23,02,35,6.90
2006,09,23,02,36,6.90
2006,09,23,02,37,6.80
2006,09,23,02,38,6.80
2006,09,23,02,39,6.80
2006,09,23,02,40,6.80
2006,09,23,02,41,6.80
2006,09,23,02,42,6.80
2006,09,23,02,43,6.80
2006,09,23,02,44,6.80
2006,09,23,02,45,6.80
2006,09,23,02,46,6.80
2006,09,23,02,47,6.80
2006,09,23,02,48,6.80
2006,09,23,02,49,6.80
2006,09,23,02,50,6.80
2006,09,23,02,51,6.80
2006,09,23,02,52,6.80
2006,09,23,02,53,6.80
2006,09,23,02,54,6.80
2006,09,23,02,55,6.80
2006,09,23,02,56,6.80
2006,09,23,02,57,6.80
2006,09,23,02,58,6.80
2006,09,23,02,59,6.80
2006,09,23,03,00,6.80
2006,09,23,03,01,6.80
2006,09,23,03,02,6.80
2006,09,23,03,03,6.80
2006,09,23,03,04,6.80
2006,09,23,03,05,6.80
2006,09,23,03,06,6.80
2006,09,23,03,07,6.80
2006,09,23,03,08,6.80
2006,09,23,03,09,6.80
2006,09,23,03,10,6.80
2006,09,23,03,11,6.80
2006,09,23,03,12,6.80
2006,09,23,03,13,6.80
2006,09,23,03,14,6.80
2006,09,23,03,15,6.80
2006,09,23,03,16,6.80
2006,09,23,03,17,6.80
2006,09,23,03,18,6.80
2006,09,23,03,19,6.80
2006,09,23,03,20,6.80
2006,09,23,03,21,6.80
2006,09,23,03,22,6.80
2006,09,23,03,23,6.80
2006,09,23,03,24,6.80
2006,09,23,03,25,6.80
2006,09,23,03,26,6.80
2006,09,23,03,27,6.80
2006,09,23,03,28,6.80
2006,09,23,03,29,6.70
2006,09,23,03,30,6.70
2006,09,23,03,31,6.70
2006,09,23,03,32,6.70
2006,09,23,03,33,6.70
2006,09,23,03,34,6.70
2006,09,23,03,35,6.70
2006,09,23,03,36,6.70
2006,09,23,03,37,6.70
2006,09,23,03,38,6.70
2006,09,23,03,39,6.70
2006,09,23,03,40,6.70
2006,09,23,03,41,6.60
2006,09,23,03,42,6.60
2006,09,23,03,43,6.60
2006,09,23,03,44,6.60
2006,09,23,03,45,6.60
2006,09,23,03,46,6.60
2006,09,23,03,47,6.60
2006,09,23,03,48,6.60
2006,09,23,03,49,6.60
2006,09,23,03,50,6.60
2006,09,23,03,51,6.60
2006,09,23,03,52,6.40
2006,09,23,03,53,6.40
2006,09,23,03,54,6.40
2006,09,23,03,55,6.40
2006,09,23,03,56,6.40
2006,09,23,03,57,6.40
2006,09,23,03,58,6.40
2006,09,23,03,59,6.40
2006,09,23,04,00,6.40
2006,09,23,04,01,6.40
2006,09,23,04,02,6.40
2006,09,23,04,03,6.50
2006,09,23,04,04,6.60
2006,09,23,04,05,6.60
2006,09,23,04,06,6.60
2006,09,23,04,07,6.60
2006,09,23,04,08,6.60
2006,09,23,04,09,6.60
2006,09,23,04,10,6.60
2006,09,23,04,11,6.50
2006,09,23,04,12,6.40
2006,09,23,04,13,6.40
2006,09,23,04,14,6.40
2006,09,23,04,15,6.40
2006,09,23,04,16,6.40
2006,09,23,04,17,6.40
2006,09,23,04,18,6.40
2006,09,23,04,19,6.40
2006,09,23,04,20,6.40
2006,09,23,04,21,6.40
2006,09,23,04,22,6.40
2006,09,23,04,23,6.40
2006,09,23,04,24,6.40
2006,09,23,04,25,6.40
2006,09,23,04,26,6.50
2006,09,23,04,27,6.60
2006,09,23,04,28,6.60
2006,09,23,04,29,6.60
2006,09,23,04,30,6.60
2006,09,23,04,31,6.60
2006,09,23,04,32,6.60
2006,09,23,04,33,6.60
2006,09,23,04,34,6.60
2006,09,23,04,35,6.50
2006,09,23,04,36,6.40
2006,09,23,04,37,6.40
2006,09,23,04,38,6.40
2006,09,23,04,39,6.40
2006,09,23,04,40,6.40
2006,09,23,04,41,6.40
2006,09,23,04,42,6.40
2006,09,23,04,43,6.40
2006,09,23,04,44,6.40
2006,09,23,04,45,6.40
2006,09,23,04,46,6.40
2006,09,23,04,47,6.40
2006,09,23,04,48,6.30
2006,09,23,04,49,6.30
2006,09,23,04,50,6.30
2006,09,23,04,51,6.30
2006,09,23,04,52,6.30
2006,09,23,04,53,6.30
2006,09,23,04,54,6.30
2006,09,23,04,55,6.30
2006,09,23,04,56,6.30
2006,09,23,04,57,6.30
2006,09,23,04,58,6.30
2006,09,23,04,59,6.30
2006,09,23,05,00,6.30
2006,09,23,05,01,6.30
2006,09,23,05,02,6.30
2006,09,23,05,03,6.30
2006,09,23,05,04,6.30
2006,09,23,05,05,6.30
2006,09,23,05,06,6.30
2006,09,23,05,07,6.40
2006,09,23,05,08,6.40
2006,09,23,05,09,6.40
2006,09,23,05,10,6.40
2006,09,23,05,11,6.40
2006,09,23,05,12,6.40
2006,09,23,05,13,6.40
2006,09,23,05,14,6.40
2006,09,23,05,15,6.40
2006,09,23,05,16,6.40
2006,09,23,05,17,6.40
2006,09,23,05,18,6.40
2006,09,23,05,19,6.30
2006,09,23,05,20,6.30
2006,09,23,05,21,6.30
2006,09,23,05,22,6.30
2006,09,23,05,23,6.20
2006,09,23,05,24,6.20
2006,09,23,05,25,6.20
2006,09,23,05,26,6.20
2006,09,23,05,27,6.20
2006,09,23,05,28,6.20
2006,09,23,05,29,6.20
2006,09,23,05,30,6.20
2006,09,23,05,31,6.20
2006,09,23,05,32,6.20
2006,09,23,05,33,6.20
2006,09,23,05,34,6.20
2006,09,23,05,35,6.20
2006,09,23,05,36,6.20
2006,09,23,05,37,6.20
2006,09,23,05,38,6.10
2006,09,23,05,39,6.10
2006,09,23,05,40,6.10
2006,09,23,05,41,6.10
2006,09,23,05,42,6.00
2006,09,23,05,43,6.00
2006,09,23,05,44,6.00
2006,09,23,05,45,6.00
2006,09,23,05,46,6.00
2006,09,23,05,47,6.00
2006,09,23,05,48,6.00
2006,09,23,05,49,6.00
2006,09,23,05,50,6.00
2006,09,23,05,51,6.00
2006,09,23,05,52,6.00
2006,09,23,05,53,6.00
2006,09,23,05,54,6.00
2006,09,23,05,55,6.00
2006,09,23,05,56,6.00
2006,09,23,05,57,6.00
2006,09,23,05,58,5.90
2006,09,23,05,59,5.90
2006,09,23,06,00,5.90
2006,09,23,06,01,5.90
2006,09,23,06,02,5.90
2006,09,23,06,03,5.80
2006,09,23,06,04,5.80
2006,09,23,06,05,5.80
2006,09,23,06,06,5.80
2006,09,23,06,07,5.80
2006,09,23,06,08,5.70
2006,09,23,06,09,5.70
2006,09,23,06,10,5.70
2006,09,23,06,11,5.70
2006,09,23,06,12,5.70
2006,09,23,06,13,5.70
2006,09,23,06,14,5.70
2006,09,23,06,15,5.70
2006,09,23,06,16,5.70
2006,09,23,06,17,5.70
2006,09,23,06,18,5.70
2006,09,23,06,19,5.70
2006,09,23,06,20,5.60
2006,09,23,06,21,5.60
2006,09,23,06,22,5.60
2006,09,23,06,23,5.60
2006,09,23,06,24,5.60
2006,09,23,06,25,5.60
2006,09,23,06,26,5.60
2006,09,23,06,27,5.60
2006,09,23,06,28,5.60
2006,09,23,06,29,5.50
2006,09,23,06,30,5.50
2006,09,23,06,31,5.50
2006,09,23,06,32,5.50
2006,09,23,06,33,5.50
2006,09,23,06,34,5.60
2006,09,23,06,35,5.60
2006,09,23,06,36,5.60
2006,09,23,06,37,5.60
2006,09,23,06,38,5.60
2006,09,23,06,39,5.70
2006,09,23,06,40,5.70
2006,09,23,06,41,5.70
2006,09,23,06,42,5.70
2006,09,23,06,43,5.70
2006,09,23,06,44,5.70
2006,09,23,06,45,5.70
2006,09,23,06,46,5.70
2006,09,23,06,47,5.70
2006,09,23,06,48,5.70
2006,09,23,06,49,5.70
2006,09,23,06,50,5.70
2006,09,23,06,51,5.70
2006,09,23,06,52,5.70
2006,09,23,06,53,5.70
2006,09,23,06,54,5.70
2006,09,23,06,55,5.60
2006,09,23,06,56,5.60
2006,09,23,06,57,5.60
2006,09,23,06,58,5.60
2006,09,23,06,59,5.60
2006,09,23,07,00,5.60
2006,09,23,07,01,5.60
2006,09,23,07,02,5.60
2006,09,23,07,03,5.60
2006,09,23,07,04,5.50
2006,09,23,07,05,5.50
2006,09,23,07,06,5.50
2006,09,23,07,07,5.50
2006,09,23,07,08,5.50
2006,09,23,07,09,5.50
2006,09,23,07,10,5.50
2006,09,23,07,11,5.50
2006,09,23,07,12,5.50
2006,09,23,07,13,5.50
2006,09,23,07,14,5.50
2006,09,23,07,15,5.50
2006,09,23,07,16,5.60
2006,09,23,07,17,5.60
2006,09,23,07,18,5.60
2006,09,23,07,19,5.60
2006,09,23,07,20,5.60
2006,09,23,07,21,5.60
2006,09,23,07,22,5.60
2006,09,23,07,23,5.70
2006,09,23,07,24,5.70
2006,09,23,07,25,5.70
2006,09,23,07,26,5.70
2006,09,23,07,27,5.70
2006,09,23,07,28,5.70
2006,09,23,07,29,5.70
2006,09,23,07,30,5.70
2006,09,23,07,31,5.70
2006,09,23,07,32,5.70
2006,09,23,07,33,5.70
2006,09,23,07,34,5.70
2006,09,23,07,35,5.70
2006,09,23,07,36,5.70
2006,09,23,07,37,5.70
2006,09,23,07,38,5.70
2006,09,23,07,39,5.70
2006,09,23,07,40,5.70
2006,09,23,07,41,5.70
2006,09,23,07,42,5.70
2006,09,23,07,43,5.70
2006,09,23,07,44,5.70
2006,09,23,07,45,5.70
2006,09,23,07,46,5.70
2006,09,23,07,47,5.70
2006,09,23,07,48,5.70
2006,09,23,07,49,5.70
2006,09,23,07,50,5.70
2006,09,23,07,51,5.70
2006,09,23,07,52,5.70
2006,09,23,07,53,5.70
2006,09,23,07,54,5.70
2006,09,23,07,55,5.70
2006,09,23,07,56,5.70
2006,09,23,07,57,5.70
2006,09,23,07,58,5.70
2006,09,23,07,59,5.70
2006,09,23,08,00,5.70
2006,09,23,08,01,5.70
2006,09,23,08,02,5.70
2006,09,23,08,03,5.70
2006,09,23,08,04,5.80
2006,09,23,08,05,5.80
2006,09,23,08,06,5.80
2006,09,23,08,07,5.80
2006,09,23,08,08,5.90
2006,09,23,08,09,5.90
2006,09,23,08,10,5.90
2006,09,23,08,11,6.00
2006,09,23,08,12,6.00
2006,09,23,08,13,6.10
2006,09,23,08,14,6.10
2006,09,23,08,15,6.20
2006,09,23,08,16,6.20
2006,09,23,08,17,6.20
2006,09,23,08,18,6.20
2006,09,23,08,19,6.30
2006,09,23,08,20,6.40
2006,09,23,08,21,6.40
2006,09,23,08,22,6.40
2006,09,23,08,23,6.50
2006,09,23,08,24,6.60
2006,09,23,08,25,6.60
2006,09,23,08,26,6.70
2006,09,23,08,27,6.80
2006,09,23,08,28,6.80
2006,09,23,08,29,6.90
2006,09,23,08,30,7.10
2006,09,23,08,31,7.20
2006,09,23,08,32,7.30
2006,09,23,08,33,7.40
2006,09,23,08,34,7.50
2006,09,23,08,35,7.60
2006,09,23,08,36,7.70
2006,09,23,08,37,7.80
2006,09,23,08,38,7.80
2006,09,23,08,39,7.90
2006,09,23,08,40,8.00
2006,09,23,08,41,8.10
2006,09,23,08,42,8.20
2006,09,23,08,43,8.20
2006,09,23,08,44,8.30
2006,09,23,08,45,8.50
2006,09,23,08,46,8.70
2006,09,23,08,47,8.80
2006,09,23,08,48,8.90
2006,09,23,08,49,9.00
2006,09,23,08,50,9.10
2006,09,23,08,51,9.20
2006,09,23,08,52,9.30
2006,09,23,08,53,9.40
2006,09,23,08,54,9.50
2006,09,23,08,55,9.50
2006,09,23,08,56,9.60
2006,09,23,08,57,9.70
2006,09,23,08,58,9.90
2006,09,23,08,59,10.00
2006,09,23,09,00,10.20
2006,09,23,09,01,10.40
2006,09,23,09,02,10.70
2006,09,23,09,03,10.90
2006,09,23,09,04,11.00
2006,09,23,09,05,11.30
2006,09,23,09,06,11.50
2006,09,23,09,07,11.80
2006,09,23,09,08,11.90
2006,09,23,09,09,12.10
2006,09,23,09,10,12.30
2006,09,23,09,11,12.40
2006,09,23,09,12,12.60
2006,09,23,09,13,12.80
2006,09,23,09,14,13.00
2006,09,23,09,15,13.10
2006,09,23,09,16,13.30
2006,09,23,09,17,13.40
2006,09,23,09,18,13.50
2006,09,23,09,19,13.60
2006,09,23,09,20,13.70
2006,09,23,09,21,13.80
2006,09,23,09,22,13.90
2006,09,23,09,23,14.00
2006,09,23,09,24,14.00
2006,09,23,09,25,14.20
2006,09,23,09,26,14.20
2006,09,23,09,27,14.20
2006,09,23,09,28,14.30
2006,09,23,09,29,14.40
2006,09,23,09,30,14.50
2006,09,23,09,31,14.50
2006,09,23,09,32,14.50
2006,09,23,09,33,14.50
2006,09,23,09,34,14.60
2006,09,23,09,35,14.60
2006,09,23,09,36,14.70
2006,09,23,09,37,14.70
2006,09,23,09,38,14.80
2006,09,23,09,39,14.80
2006,09,23,09,40,14.80
2006,09,23,09,41,14.90
2006,09,23,09,42,15.00
2006,09,23,09,43,15.00
2006,09,23,09,44,15.10
2006,09,23,09,45,15.20
2006,09,23,09,46,15.30
2006,09,23,09,47,15.30
2006,09,23,09,48,15.40
2006,09,23,09,49,15.40
2006,09,23,09,50,15.50
2006,09,23,09,51,15.50
2006,09,23,09,52,15.50
2006,09,23,09,53,15.60
2006,09,23,09,54,15.60
2006,09,23,09,55,15.60
2006,09,23,09,56,15.70
2006,09,23,09,57,15.70
2006,09,23,09,58,15.80
2006,09,23,09,59,15.80
2006,09,23,10,00,15.80
2006,09,23,10,01,15.80
2006,09,23,10,02,15.80
2006,09,23,10,03,15.80
2006,09,23,10,04,15.70
2006,09,23,10,05,15.70
2006,09,23,10,06,15.70
2006,09,23,10,07,15.70
2006,09,23,10,08,15.70
2006,09,23,10,09,15.80
2006,09,23,10,10,15.80
2006,09,23,10,11,15.80
2006,09,23,10,12,15.90
2006,09,23,10,13,15.90
2006,09,23,10,14,15.90
2006,09,23,10,15,15.90
2006,09,23,10,16,15.90
2006,09,23,10,17,15.90
2006,09,23,10,18,15.90
2006,09,23,10,19,15.90
2006,09,23,10,20,15.90
2006,09,23,10,21,15.90
2006,09,23,10,22,15.90
2006,09,23,10,23,16.00
2006,09,23,10,24,16.10
2006,09,23,10,25,16.10
2006,09,23,10,26,16.20
2006,09,23,10,27,16.30
2006,09,23,10,28,16.40
2006,09,23,10,29,16.40
2006,09,23,10,30,16.40
2006,09,23,10,31,16.40
2006,09,23,10,32,16.40
2006,09,23,10,33,16.40
2006,09,23,10,34,16.40
2006,09,23,10,35,16.40
2006,09,23,10,36,16.40
2006,09,23,10,37,16.40
2006,09,23,10,38,16.40
2006,09,23,10,39,16.40
2006,09,23,10,40,16.40
2006,09,23,10,41,16.40
2006,09,23,10,42,16.50
2006,09,23,10,43,16.60
2006,09,23,10,44,16.60
2006,09,23,10,45,16.60
2006,09,23,10,46,16.70
2006,09,23,10,47,16.70
2006,09,23,10,48,16.80
2006,09,23,10,49,16.80
2006,09,23,10,50,16.90
2006,09,23,10,51,17.00
2006,09,23,10,52,17.00
2006,09,23,10,53,17.10
2006,09,23,10,54,17.20
2006,09,23,10,55,17.30
2006,09,23,10,56,17.40
2006,09,23,10,57,17.40
2006,09,23,10,58,17.40
2006,09,23,10,59,17.40
2006,09,23,11,00,17.30
2006,09,23,11,01,17.30
2006,09,23,11,02,17.30
2006,09,23,11,03,17.30
2006,09,23,11,04,17.30
2006,09,23,11,05,17.30
2006,09,23,11,06,17.30
2006,09,23,11,07,17.30
2006,09,23,11,08,17.40
2006,09,23,11,09,17.40
2006,09,23,11,10,17.50
2006,09,23,11,11,17.50
2006,09,23,11,12,17.60
2006,09,23,11,13,17.70
2006,09,23,11,14,17.70
2006,09,23,11,15,17.70
2006,09,23,11,16,17.70
2006,09,23,11,17,17.80
2006,09,23,11,18,17.80
2006,09,23,11,19,17.80
2006,09,23,11,20,17.90
2006,09,23,11,21,17.90
2006,09,23,11,22,17.90
2006,09,23,11,23,17.90
2006,09,23,11,24,17.90
2006,09,23,11,25,17.80
2006,09,23,11,26,17.70
2006,09,23,11,27,17.60
2006,09,23,11,28,17.50
2006,09,23,11,29,17.50
2006,09,23,11,30,17.60
2006,09,23,11,31,17.60
2006,09,23,11,32,17.60
2006,09,23,11,33,17.60
2006,09,23,11,34,17.60
2006,09,23,11,35,17.70
2006,09,23,11,36,17.70
2006,09,23,11,37,17.70
2006,09,23,11,38,17.80
2006,09,23,11,39,17.80
2006,09,23,11,40,17.80
2006,09,23,11,41,17.90
2006,09,23,11,42,17.90
2006,09,23,11,43,18.00
2006,09,23,11,44,18.00
2006,09,23,11,45,17.90
2006,09,23,11,46,17.90
2006,09,23,11,47,17.90
2006,09,23,11,48,17.90
2006,09,23,11,49,17.90
2006,09,23,11,50,17.90
2006,09,23,11,51,17.90
2006,09,23,11,52,17.90
2006,09,23,11,53,18.00
2006,09,23,11,54,18.10
2006,09,23,11,55,18.10
2006,09,23,11,56,18.10
2006,09,23,11,57,18.20
2006,09,23,11,58,18.20
2006,09,23,11,59,18.20
2006,09,23,12,00,18.30
2006,09,23,12,01,18.30
2006,09,23,12,02,18.30
2006,09,23,12,03,18.20
2006,09,23,12,04,18.20
2006,09,23,12,05,18.20
2006,09,23,12,06,18.20
2006,09,23,12,07,18.20
2006,09,23,12,08,18.20
2006,09,23,12,09,18.30
2006,09,23,12,10,18.30
2006,09,23,12,11,18.40
2006,09,23,12,12,18.50
2006,09,23,12,13,18.50
2006,09,23,12,14,18.50
2006,09,23,12,15,18.60
2006,09,23,12,16,18.60
2006,09,23,12,17,18.70
2006,09,23,12,18,18.70
2006,09,23,12,19,18.80
2006,09,23,12,20,18.90
2006,09,23,12,21,18.90
2006,09,23,12,22,18.90
2006,09,23,12,23,19.00
2006,09,23,12,24,19.10
2006,09,23,12,25,19.20
2006,09,23,12,26,19.20
2006,09,23,12,27,19.30
2006,09,23,12,28,19.30
2006,09,23,12,29,19.30
2006,09,23,12,30,19.20
2006,09,23,12,31,19.20
2006,09,23,12,32,19.00
2006,09,23,12,33,18.90
2006,09,23,12,34,18.70
2006,09,23,12,35,18.60
2006,09,23,12,36,18.60
2006,09,23,12,37,18.50
2006,09,23,12,38,18.50
2006,09,23,12,39,18.40
2006,09,23,12,40,18.30
2006,09,23,12,41,18.20
2006,09,23,12,42,18.20
2006,09,23,12,43,18.20
2006,09,23,12,44,18.20
2006,09,23,12,45,18.20
2006,09,23,12,46,18.20
2006,09,23,12,47,18.20
2006,09,23,12,48,18.20
2006,09,23,12,49,18.20
2006,09,23,12,50,18.20
2006,09,23,12,51,18.30
2006,09,23,12,52,18.40
2006,09,23,12,53,18.40
2006,09,23,12,54,18.50
2006,09,23,12,55,18.50
2006,09,23,12,56,18.50
2006,09,23,12,57,18.40
2006,09,23,12,58,18.40
2006,09,23,12,59,18.40
2006,09,23,13,00,18.30
2006,09,23,13,01,18.30
2006,09,23,13,02,18.20
2006,09,23,13,03,18.30
2006,09,23,13,04,18.30
2006,09,23,13,05,18.30
2006,09,23,13,06,18.30
2006,09,23,13,07,18.30
2006,09,23,13,08,18.30
2006,09,23,13,09,18.30
2006,09,23,13,10,18.30
2006,09,23,13,11,18.40
2006,09,23,13,12,18.50
2006,09,23,13,13,18.60
2006,09,23,13,14,18.60
2006,09,23,13,15,18.70
2006,09,23,13,16,18.80
2006,09,23,13,17,18.80
2006,09,23,13,18,18.80
2006,09,23,13,19,18.70
2006,09,23,13,20,18.80
2006,09,23,13,21,18.80
2006,09,23,13,22,18.90
2006,09,23,13,23,19.00
2006,09,23,13,24,19.10
2006,09,23,13,25,19.10
2006,09,23,13,26,19.00
2006,09,23,13,27,18.90
2006,09,23,13,28,18.80
2006,09,23,13,29,18.80
2006,09,23,13,30,18.80
2006,09,23,13,31,18.80
2006,09,23,13,32,18.80
2006,09,23,13,33,18.80
2006,09,23,13,34,18.80
2006,09,23,13,35,18.70
2006,09,23,13,36,18.70
2006,09,23,13,37,18.70
2006,09,23,13,38,18.80
2006,09,23,13,39,18.90
2006,09,23,13,40,18.90
2006,09,23,13,41,18.90
2006,09,23,13,42,18.90
2006,09,23,13,43,18.90
2006,09,23,13,44,18.90
2006,09,23,13,45,18.90
2006,09,23,13,46,18.90
2006,09,23,13,47,18.90
2006,09,23,13,48,18.90
2006,09,23,13,49,18.90
2006,09,23,13,50,18.90
2006,09,23,13,51,18.90
2006,09,23,13,52,18.90
2006,09,23,13,53,18.90
2006,09,23,13,54,18.80
2006,09,23,13,55,18.80
2006,09,23,13,56,18.80
2006,09,23,13,57,18.70
2006,09,23,13,58,18.70
2006,09,23,13,59,18.60
2006,09,23,14,00,18.60
2006,09,23,14,01,18.60
2006,09,23,14,02,18.60
2006,09,23,14,03,18.70
2006,09,23,14,04,18.70
2006,09,23,14,05,18.70
2006,09,23,14,06,18.70
2006,09,23,14,07,18.70
2006,09,23,14,08,18.70
2006,09,23,14,09,18.70
2006,09,23,14,10,18.80
2006,09,23,14,11,18.90
2006,09,23,14,12,18.90
2006,09,23,14,13,18.90
2006,09,23,14,14,18.90
2006,09,23,14,15,18.80
2006,09,23,14,16,18.80
2006,09,23,14,17,18.80
2006,09,23,14,18,18.80
2006,09,23,14,19,18.70
2006,09,23,14,20,18.70
2006,09,23,14,21,18.70
2006,09,23,14,22,18.70
2006,09,23,14,23,18.70
2006,09,23,14,24,18.70
2006,09,23,14,25,18.80
2006,09,23,14,26,18.80
2006,09,23,14,27,18.90
2006,09,23,14,28,18.90
2006,09,23,14,29,18.90
2006,09,23,14,30,19.00
2006,09,23,14,31,19.10
2006,09,23,14,32,19.10
2006,09,23,14,33,19.10
2006,09,23,14,34,19.10
2006,09,23,14,35,19.10
2006,09,23,14,36,19.10
2006,09,23,14,37,19.10
2006,09,23,14,38,19.00
2006,09,23,14,39,19.10
2006,09,23,14,40,19.10
2006,09,23,14,41,19.10
2006,09,23,14,42,19.10
2006,09,23,14,43,19.10
2006,09,23,14,44,19.10
2006,09,23,14,45,19.10
2006,09,23,14,46,19.00
2006,09,23,14,47,18.90
2006,09,23,14,48,18.90
2006,09,23,14,49,18.90
2006,09,23,14,50,18.90
2006,09,23,14,51,18.90
2006,09,23,14,52,18.90
2006,09,23,14,53,19.00
2006,09,23,14,54,19.10
2006,09,23,14,55,19.10
2006,09,23,14,56,19.00
2006,09,23,14,57,18.90
2006,09,23,14,58,18.90
2006,09,23,14,59,18.90
2006,09,23,15,00,18.90
2006,09,23,15,01,18.80
2006,09,23,15,02,18.80
2006,09,23,15,03,18.80
2006,09,23,15,04,18.80
2006,09,23,15,05,18.80
2006,09,23,15,06,18.80
2006,09,23,15,07,18.80
2006,09,23,15,08,18.80
2006,09,23,15,09,18.90
2006,09,23,15,10,18.90
2006,09,23,15,11,18.80
2006,09,23,15,12,18.90
2006,09,23,15,13,18.90
2006,09,23,15,14,18.90
2006,09,23,15,15,18.90
2006,09,23,15,16,19.00
2006,09,23,15,17,19.10
2006,09,23,15,18,19.10
2006,09,23,15,19,19.10
2006,09,23,15,20,19.10
2006,09,23,15,21,19.10
2006,09,23,15,22,19.10
2006,09,23,15,23,19.00
2006,09,23,15,24,18.90
2006,09,23,15,25,18.90
2006,09,23,15,26,18.90
2006,09,23,15,27,18.90
2006,09,23,15,28,18.90
2006,09,23,15,29,18.90
2006,09,23,15,30,18.90
2006,09,23,15,31,18.90
2006,09,23,15,32,18.90
2006,09,23,15,33,18.90
2006,09,23,15,34,18.90
2006,09,23,15,35,18.90
2006,09,23,15,36,18.90
2006,09,23,15,37,18.90
2006,09,23,15,38,18.90
2006,09,23,15,39,19.00
2006,09,23,15,40,19.10
2006,09,23,15,41,19.10
2006,09,23,15,42,19.10
2006,09,23,15,43,19.10
2006,09,23,15,44,19.20
2006,09,23,15,45,19.20
2006,09,23,15,46,19.20
2006,09,23,15,47,19.30
2006,09,23,15,48,19.40
2006,09,23,15,49,19.40
2006,09,23,15,50,19.50
2006,09,23,15,51,19.60
2006,09,23,15,52,19.70
2006,09,23,15,53,19.80
2006,09,23,15,54,19.80
2006,09,23,15,55,19.70
2006,09,23,15,56,19.70
2006,09,23,15,57,19.60
2006,09,23,15,58,19.60
2006,09,23,15,59,19.60
2006,09,23,16,00,19.70
2006,09,23,16,01,19.70
2006,09,23,16,02,19.80
2006,09,23,16,03,19.80
2006,09,23,16,04,19.80
2006,09,23,16,05,19.90
2006,09,23,16,06,19.90
2006,09,23,16,07,19.90
2006,09,23,16,08,19.90
2006,09,23,16,09,19.90
2006,09,23,16,10,19.80
2006,09,23,16,11,19.60
2006,09,23,16,12,19.60
2006,09,23,16,13,19.50
2006,09,23,16,14,19.50
2006,09,23,16,15,19.40
2006,09,23,16,16,19.40
2006,09,23,16,17,19.40
2006,09,23,16,18,19.40
2006,09,23,16,19,19.30
2006,09,23,16,20,19.30
2006,09,23,16,21,19.40
2006,09,23,16,22,19.40
2006,09,23,16,23,19.40
2006,09,23,16,24,19.40
2006,09,23,16,25,19.40
2006,09,23,16,26,19.40
2006,09,23,16,27,19.40
2006,09,23,16,28,19.40
2006,09,23,16,29,19.40
2006,09,23,16,30,19.50
2006,09,23,16,31,19.60
2006,09,23,16,32,19.70
2006,09,23,16,33,19.70
2006,09,23,16,34,19.80
2006,09,23,16,35,19.90
2006,09,23,16,36,19.90
2006,09,23,16,37,19.90
2006,09,23,16,38,19.90
2006,09,23,16,39,19.80
2006,09,23,16,40,19.80
2006,09,23,16,41,19.70
2006,09,23,16,42,19.70
2006,09,23,16,43,19.70
2006,09,23,16,44,19.80
2006,09,23,16,45,19.80
2006,09,23,16,46,19.90
2006,09,23,16,47,19.80
2006,09,23,16,48,19.70
2006,09,23,16,49,19.70
2006,09,23,16,50,19.70
2006,09,23,16,51,19.70
2006,09,23,16,52,19.70
2006,09,23,16,53,19.60
2006,09,23,16,54,19.50
2006,09,23,16,55,19.50
2006,09,23,16,56,19.50
2006,09,23,16,57,19.50
2006,09,23,16,58,19.50
2006,09,23,16,59,19.50
2006,09,23,17,00,19.50
2006,09,23,17,01,19.50
2006,09,23,17,02,19.50
2006,09,23,17,03,19.50
2006,09,23,17,04,19.50
2006,09,23,17,05,19.50
2006,09,23,17,06,19.50
2006,09,23,17,07,19.60
2006,09,23,17,08,19.60
2006,09,23,17,09,19.60
2006,09,23,17,10,19.60
2006,09,23,17,11,19.60
2006,09,23,17,12,19.60
2006,09,23,17,13,19.50
2006,09,23,17,14,19.50
2006,09,23,17,15,19.50
2006,09,23,17,16,19.50
2006,09,23,17,17,19.50
2006,09,23,17,18,19.50
2006,09,23,17,19,19.60
2006,09,23,17,20,19.60
2006,09,23,17,21,19.60
2006,09,23,17,22,19.70
2006,09,23,17,23,19.60
2006,09,23,17,24,19.60
2006,09,23,17,25,19.70
2006,09,23,17,26,19.70
2006,09,23,17,27,19.70
2006,09,23,17,28,19.70
2006,09,23,17,29,19.60
2006,09,23,17,30,19.60
2006,09,23,17,31,19.60
2006,09,23,17,32,19.50
2006,09,23,17,33,19.50
2006,09,23,17,34,19.50
2006,09,23,17,35,19.50
2006,09,23,17,36,19.50
2006,09,23,17,37,19.40
2006,09,23,17,38,19.40
2006,09,23,17,39,19.30
2006,09,23,17,40,19.30
2006,09,23,17,41,19.30
2006,09,23,17,42,19.30